| time (UTC) | temp F | wind direction | speed knots | gust knots | rain 1hr in | rain 24hr in | rain mn in | humidity % | barometer mb |
| 20260507021442 | 62 | 202 | 0.0 | 0.0 | 0.00 | 0.00 | 0.00 | 67 | 1001.9 |
| 20260507020942 | 62 | 202 | 0.0 | 0.0 | 0.00 | 0.00 | 0.00 | 67 | 1001.9 |
| 20260507020442 | 0 | 202 | 0.0 | 0.0 | 0.00 | 0.00 | 0.00 | 1004.3 | |
| 20260507015942 | 0 | 202 | 0.0 | 0.0 | 0.00 | 0.00 | 0.00 | 1004.2 | |
| 20260507015442 | 0 | 202 | 0.0 | 0.0 | 0.00 | 0.00 | 0.00 | 997.4 | |
| 20260507014942 | 62 | 202 | 0.0 | 0.0 | 0.00 | 0.00 | 0.00 | 67 | 1002.2 |
| 20260507014442 | 62 | 202 | 0.0 | 0.0 | 0.00 | 0.00 | 0.00 | 67 | 1002.2 |
| 20260507013942 | 62 | 202 | 0.0 | 0.0 | 0.00 | 0.00 | 0.00 | 66 | 1002.6 |
| 20260507013442 | 62 | 202 | 0.0 | 0.0 | 0.00 | 0.00 | 0.00 | 66 | 1002.5 |
| 20260507012942 | 62 | 202 | 0.0 | 0.0 | 0.00 | 0.00 | 0.00 | 66 | 1002.3 |
| 20260507012442 | 62 | 202 | 0.0 | 0.0 | 0.00 | 0.00 | 0.00 | 66 | 1002.3 |
| 20260507011942 | 62 | 202 | 0.0 | 0.0 | 0.00 | 0.00 | 0.00 | 66 | 1003.3 |
| 20260507011442 | 0 | 202 | 0.0 | 0.0 | 0.00 | 0.00 | 0.00 | 1004.3 | |
| 20260507010942 | 0 | 202 | 0.0 | 0.0 | 0.00 | 0.00 | 0.00 | 1004.0 | |
| 20260507010442 | 63 | 202 | 0.0 | 0.0 | 0.00 | 0.00 | 0.00 | 65 | 998.6 |
| 20260507005942 | 63 | 202 | 0.0 | 0.0 | 0.00 | 0.00 | 0.00 | 65 | 1001.9 |
| 20260507005442 | 63 | 202 | 0.0 | 0.0 | 0.00 | 0.00 | 0.00 | 65 | 1001.9 |
| 20260507004942 | 63 | 202 | 0.0 | 0.0 | 0.00 | 0.00 | 0.00 | 65 | 1002.7 |
| 20260507004442 | 0 | 202 | 0.0 | 0.0 | 0.00 | 0.00 | 0.00 | 1003.8 | |
| 20260507003942 | 0 | 202 | 0.0 | 0.0 | 0.00 | 0.00 | 0.00 | 1003.2 | |
| 20260507003442 | 63 | 202 | 0.0 | 0.0 | 0.00 | 0.00 | 0.00 | 65 | 998.2 |
| 20260507002942 | 63 | 202 | 0.0 | 0.0 | 0.00 | 0.00 | 0.00 | 65 | 1001.4 |
| 20260507002442 | 63 | 202 | 0.0 | 4.3 | 0.00 | 0.00 | 0.00 | 65 | 1001.6 |
| 20260507001942 | 0 | 202 | 0.0 | 4.3 | 0.00 | 0.00 | 0.00 | 1003.7 | |
| 20260507001442 | 0 | 202 | 0.0 | 0.0 | 0.00 | 0.00 | 0.00 | 1003.4 | |
| 20260507000942 | 0 | 202 | 0.0 | 0.0 | 0.00 | 0.00 | 0.00 | 996.6 | |
| 20260507000442 | 63 | 202 | 4.3 | 4.3 | 0.00 | 0.00 | 0.00 | 65 | 999.2 |
| 20260506235942 | 63 | 202 | 4.3 | 4.3 | 0.00 | 0.00 | 0.00 | 65 | 1001.3 |
| 20260506235442 | 63 | 202 | 0.0 | 1.7 | 0.00 | 0.00 | 0.00 | 65 | 1001.4 |
| 20260506234942 | 64 | 202 | 2.6 | 2.6 | 0.00 | 0.00 | 0.00 | 65 | 1003.0 |
| 20260506234442 | 0 | 202 | 0.0 | 0.0 | 0.00 | 0.00 | 0.00 | 1003.3 | |
| 20260506233942 | 0 | 202 | 0.0 | 0.0 | 0.00 | 0.00 | 0.00 | 1001.9 | |
| 20260506233442 | 64 | 202 | 0.0 | 0.0 | 0.00 | 0.00 | 0.00 | 64 | 999.3 |
| 20260506232942 | 64 | 202 | 0.0 | 0.0 | 0.00 | 0.00 | 0.00 | 64 | 999.3 |
| 20260506232442 | 64 | 270 | 0.0 | 5.2 | 0.00 | 0.00 | 0.00 | 64 | 1001.2 |
| 20260506231942 | 64 | 270 | 0.0 | 0.9 | 0.00 | 0.00 | 0.00 | 64 | 1000.8 |
| 20260506231442 | 64 | 202 | 0.0 | 0.0 | 0.00 | 0.00 | 0.00 | 64 | 1002.6 |
| 20260506230942 | 64 | 270 | 0.0 | 0.0 | 0.00 | 0.00 | 0.00 | 64 | 1002.7 |
| 20260506230442 | 64 | 270 | 0.0 | 0.0 | 0.00 | 0.00 | 0.00 | 64 | 1002.6 |
| 20260506225942 | 64 | 270 | 0.0 | 0.0 | 0.00 | 0.00 | 0.00 | 64 | 1001.7 |
| 20260506225442 | 64 | 270 | 0.0 | 0.0 | 0.00 | 0.00 | 0.00 | 64 | 1000.8 |
| 20260506224942 | 64 | 270 | 0.0 | 5.2 | 0.00 | 0.00 | 0.00 | 64 | 1000.5 |
| 20260506224442 | 64 | 202 | 5.2 | 5.2 | 0.00 | 0.00 | 0.00 | 63 | 1000.3 |
| 20260506223942 | 65 | 202 | 0.0 | 0.0 | 0.00 | 0.00 | 0.00 | 63 | 1001.6 |
| 20260506223442 | 0 | 270 | 0.0 | 0.0 | 0.00 | 0.00 | 0.00 | 1002.0 | |
| 20260506222942 | 0 | 270 | 0.0 | 0.0 | 0.00 | 0.00 | 0.00 | 999.3 | |
| 20260506222442 | 65 | 270 | 0.0 | 0.0 | 0.00 | 0.00 | 0.00 | 63 | 996.1 |
| 20260506221942 | 65 | 270 | 0.0 | 0.0 | 0.00 | 0.00 | 0.00 | 63 | 998.8 |
| 20260506221442 | 65 | 202 | 0.0 | 2.6 | 0.00 | 0.00 | 0.00 | 63 | 999.7 |
| 20260506220942 | 65 | 202 | 0.0 | 0.0 | 0.00 | 0.00 | 0.00 | 62 | 1001.5 |
| 20260506220442 | 0 | 112 | 0.0 | 0.0 | 0.00 | 0.00 | 0.00 | 1001.6 | |
| 20260506215942 | 0 | 112 | 0.0 | 0.0 | 0.00 | 0.00 | 0.00 | 1000.4 | |
| 20260506215442 | 65 | 112 | 0.0 | 0.0 | 0.00 | 0.00 | 0.00 | 62 | 996.3 |
| 20260506214942 | 65 | 112 | 0.0 | 1.7 | 0.00 | 0.00 | 0.00 | 62 | 1000.0 |
| 20260506214442 | 66 | 180 | 0.0 | 1.7 | 0.00 | 0.00 | 0.00 | 62 | 999.4 |
| 20260506213942 | 66 | 22 | 0.0 | 1.7 | 0.00 | 0.00 | 0.00 | 61 | 999.0 |
| 20260506213442 | 66 | 90 | 0.0 | 0.0 | 0.00 | 0.00 | 0.00 | 61 | 999.5 |
| 20260506212942 | 66 | 202 | 0.0 | 2.6 | 0.00 | 0.00 | 0.00 | 61 | 1000.3 |
| 20260506212442 | 0 | 202 | 0.0 | 0.0 | 0.00 | 0.00 | 0.00 | 1001.5 | |
| 20260506211942 | 0 | 202 | 0.0 | 0.0 | 0.00 | 0.00 | 0.00 | 1001.2 | |
| 20260506211442 | 66 | 202 | 0.0 | 0.0 | 0.00 | 0.00 | 0.00 | 61 | 995.3 |
| 20260506210942 | 66 | 202 | 0.0 | 0.0 | 0.00 | 0.00 | 0.00 | 61 | 996.4 |
| 20260506210442 | 66 | 202 | 0.0 | 5.2 | 0.00 | 0.00 | 0.00 | 61 | 998.6 |
| 20260506205942 | 66 | 270 | 0.0 | 4.3 | 0.00 | 0.00 | 0.00 | 60 | 999.8 |
| 20260506205442 | 66 | 270 | 0.0 | 3.5 | 0.00 | 0.00 | 0.00 | 60 | 999.9 |
| 20260506204942 | 66 | 270 | 0.0 | 2.6 | 0.00 | 0.00 | 0.00 | 60 | 1000.5 |
| 20260506204442 | 0 | 202 | 0.0 | 0.0 | 0.00 | 0.00 | 0.00 | 1001.6 | |
| 20260506203942 | 0 | 202 | 0.0 | 0.0 | 0.00 | 0.00 | 0.00 | 1000.9 | |
| 20260506203442 | 67 | 202 | 0.0 | 0.0 | 0.00 | 0.00 | 0.00 | 59 | 997.4 |
| 20260506202942 | 67 | 202 | 0.0 | 0.9 | 0.00 | 0.00 | 0.00 | 59 | 997.4 |
| 20260506202442 | 67 | 22 | 0.9 | 3.5 | 0.00 | 0.00 | 0.00 | 59 | 999.3 |
| 20260506201942 | 67 | 270 | 0.0 | 0.0 | 0.00 | 0.00 | 0.00 | 58 | 999.6 |
| 20260506201442 | 0 | 270 | 0.0 | 0.0 | 0.00 | 0.00 | 0.00 | 1001.1 | |
| 20260506200942 | 0 | 270 | 0.0 | 0.0 | 0.00 | 0.00 | 0.00 | 1000.7 | |
| 20260506200442 | 68 | 270 | 0.0 | 0.0 | 0.00 | 0.00 | 0.00 | 57 | 998.0 |
| 20260506195942 | 68 | 270 | 0.0 | 0.0 | 0.00 | 0.00 | 0.00 | 57 | 998.0 |
| 20260506195442 | 68 | 270 | 0.0 | 0.0 | 0.00 | 0.00 | 0.00 | 57 | 998.5 |
| 20260506194942 | 68 | 90 | 0.0 | 0.9 | 0.00 | 0.00 | 0.00 | 57 | 999.7 |
| 20260506194442 | 68 | 90 | 0.0 | 1.7 | 0.00 | 0.00 | 0.00 | 57 | 998.4 |
| 20260506193942 | 68 | 0 | 0.0 | 0.0 | 0.00 | 0.00 | 0.00 | 57 | 997.9 |
| 20260506193442 | 68 | 202 | 0.0 | 2.6 | 0.00 | 0.00 | 0.00 | 56 | 999.2 |
| 20260506192942 | 68 | 202 | 0.0 | 1.7 | 0.00 | 0.00 | 0.00 | 56 | 999.6 |
| 20260506192442 | 68 | 0 | 1.7 | 1.7 | 0.00 | 0.00 | 0.00 | 56 | 1000.4 |
| 20260506191942 | 0 | 180 | 0.0 | 0.0 | 0.00 | 0.00 | 0.00 | 1000.7 | |
| 20260506191442 | 0 | 180 | 0.0 | 0.0 | 0.00 | 0.00 | 0.00 | 999.7 | |
| 20260506190942 | 69 | 180 | 0.0 | 0.0 | 0.00 | 0.00 | 0.00 | 55 | 997.6 |
| 20260506190442 | 69 | 180 | 0.0 | 0.0 | 0.00 | 0.00 | 0.00 | 55 | 997.6 |
| 20260506185942 | 69 | 22 | 0.0 | 0.0 | 0.00 | 0.00 | 0.00 | 55 | 999.0 |
| 20260506185442 | 69 | 180 | 0.0 | 0.0 | 0.00 | 0.00 | 0.00 | 55 | 999.3 |
| 20260506184942 | 69 | 202 | 0.0 | 0.0 | 0.00 | 0.00 | 0.00 | 55 | 1000.1 |
| 20260506184442 | 70 | 270 | 0.0 | 0.0 | 0.00 | 0.00 | 0.00 | 53 | 1000.9 |
| 20260506183942 | 70 | 270 | 0.0 | 0.0 | 0.00 | 0.00 | 0.00 | 53 | 1000.9 |
| 20260506183442 | 70 | 270 | 0.0 | 0.0 | 0.00 | 0.00 | 0.00 | 53 | 1000.8 |
| 20260506182942 | 70 | 270 | 0.0 | 0.0 | 0.00 | 0.00 | 0.00 | 53 | 1000.4 |
| 20260506182442 | 70 | 270 | 0.0 | 0.0 | 0.00 | 0.00 | 0.00 | 53 | 999.5 |
| 20260506181942 | 70 | 270 | 0.0 | 0.0 | 0.00 | 0.00 | 0.00 | 53 | 998.9 |
| 20260506181442 | 70 | 22 | 0.0 | 1.7 | 0.00 | 0.00 | 0.00 | 53 | 998.6 |
| 20260506180943 | 70 | 0 | 0.0 | 0.0 | 0.00 | 0.00 | 0.00 | 52 | 998.7 |
| 20260506180443 | 70 | 180 | 0.0 | 5.2 | 0.00 | 0.00 | 0.00 | 52 | 998.4 |
| 20260506175943 | 71 | 270 | 0.0 | 0.0 | 0.00 | 0.00 | 0.00 | 52 | 998.8 |
| 20260506175443 | 71 | 180 | 0.0 | 1.7 | 0.00 | 0.00 | 0.00 | 52 | 998.3 |
| 20260506174943 | 71 | 270 | 0.0 | 4.3 | 0.00 | 0.00 | 0.00 | 51 | 998.5 |
| 20260506174443 | 71 | 270 | 0.0 | 1.7 | 0.00 | 0.00 | 0.00 | 51 | 998.9 |
| 20260506173943 | 71 | 22 | 0.0 | 0.0 | 0.00 | 0.00 | 0.00 | 51 | 999.7 |
| 20260506173443 | 0 | 270 | 0.0 | 0.0 | 0.00 | 0.00 | 0.00 | 1000.3 | |
| 20260506172943 | 0 | 270 | 0.0 | 0.0 | 0.00 | 0.00 | 0.00 | 998.8 | |
| 20260506172443 | 72 | 270 | 0.0 | 0.0 | 0.00 | 0.00 | 0.00 | 10 | 995.1 |
| 20260506171943 | 72 | 270 | 0.0 | 0.0 | 0.00 | 0.00 | 0.00 | 10 | 1000.2 |
| 20260506171443 | 0 | 270 | 0.0 | 0.0 | 0.00 | 0.00 | 0.00 | 1000.4 | |
| 20260506170943 | 0 | 270 | 0.0 | 0.0 | 0.00 | 0.00 | 0.00 | 999.8 | |
| 20260506170443 | 73 | 270 | 0.0 | 0.0 | 0.00 | 0.00 | 0.00 | 47 | 995.6 |
| 20260506165943 | 73 | 270 | 0.0 | 0.0 | 0.00 | 0.00 | 0.00 | 47 | 995.7 |
| 20260506165443 | 73 | 270 | 0.0 | 2.6 | 0.00 | 0.00 | 0.00 | 47 | 999.1 |
| 20260506164943 | 74 | 0 | 0.0 | 7.0 | 0.00 | 0.00 | 0.00 | 47 | 998.9 |
| 20260506164443 | 74 | 112 | 0.0 | 0.0 | 0.00 | 0.00 | 0.00 | 47 | 999.7 |
| 20260506163943 | 0 | 270 | 0.0 | 0.0 | 0.00 | 0.00 | 0.00 | 1000.3 | |
| 20260506163443 | 0 | 270 | 0.0 | 0.0 | 0.00 | 0.00 | 0.00 | 999.6 | |
| 20260506162943 | 74 | 270 | 0.0 | 0.0 | 0.00 | 0.00 | 0.00 | 47 | 996.6 |
| 20260506162443 | 74 | 270 | 0.0 | 0.0 | 0.00 | 0.00 | 0.00 | 47 | 1000.7 |
| 20260506161943 | 74 | 270 | 0.0 | 0.0 | 0.00 | 0.00 | 0.00 | 47 | 1000.7 |
| 20260506161443 | 0 | 270 | 0.0 | 0.0 | 0.00 | 0.00 | 0.00 | 1000.5 | |
| 20260506160943 | 0 | 270 | 0.0 | 0.0 | 0.00 | 0.00 | 0.00 | 1000.0 | |
| 20260506160443 | 75 | 270 | 0.0 | 0.0 | 0.00 | 0.00 | 0.00 | 46 | 995.5 |
| 20260506155943 | 75 | 270 | 0.0 | 0.0 | 0.00 | 0.00 | 0.00 | 46 | 998.2 |
| 20260506155443 | 75 | 270 | 0.0 | 1.7 | 0.00 | 0.00 | 0.00 | 46 | 999.4 |
| 20260506154943 | 75 | 202 | 0.0 | 3.5 | 0.00 | 0.00 | 0.00 | 46 | 999.2 |
| 20260506154443 | 75 | 292 | 0.0 | 0.0 | 0.00 | 0.00 | 0.00 | 45 | 998.9 |
| 20260506153943 | 75 | 112 | 0.0 | 3.5 | 0.00 | 0.00 | 0.00 | 45 | 999.0 |
| 20260506153443 | 75 | 180 | 0.0 | 1.7 | 0.00 | 0.00 | 0.00 | 45 | 999.4 |
| 20260506152943 | 75 | 112 | 0.0 | 0.0 | 0.00 | 0.00 | 0.00 | 45 | 999.7 |
| 20260506152443 | 75 | 0 | 0.0 | 2.6 | 0.00 | 0.00 | 0.00 | 46 | 999.4 |
| 20260506151943 | 75 | 22 | 0.0 | 0.9 | 0.00 | 0.00 | 0.00 | 46 | 1000.1 |
| 20260506151443 | 0 | 180 | 0.0 | 0.0 | 0.00 | 0.00 | 0.00 | 1001.1 | |
| 20260506150943 | 0 | 180 | 0.0 | 0.0 | 0.00 | 0.00 | 0.00 | 1000.4 | |
| 20260506150443 | 76 | 180 | 0.0 | 0.0 | 0.00 | 0.00 | 0.00 | 45 | 996.7 |
| 20260506145943 | 76 | 180 | 0.0 | 0.0 | 0.00 | 0.00 | 0.00 | 45 | 996.7 |
| 20260506145443 | 76 | 180 | 0.0 | 0.0 | 0.00 | 0.00 | 0.00 | 45 | 999.8 |
| 20260506144943 | 76 | 22 | 0.0 | 0.0 | 0.00 | 0.00 | 0.00 | 45 | 1001.3 |
| 20260506144443 | 0 | 112 | 0.0 | 0.0 | 0.00 | 0.00 | 0.00 | 1000.8 | |
| 20260506143943 | 0 | 112 | 0.0 | 0.0 | 0.00 | 0.00 | 0.00 | 996.0 | |
| 20260506143443 | 77 | 112 | 0.0 | 0.0 | 0.00 | 0.00 | 0.00 | 44 | 997.2 |
| 20260506142943 | 77 | 112 | 0.0 | 0.0 | 0.00 | 0.00 | 0.00 | 44 | 998.5 |
| 20260506142443 | 77 | 22 | 0.0 | 1.7 | 0.00 | 0.00 | 0.00 | 44 | 999.0 |
| 20260506141943 | 77 | 22 | 0.0 | 0.0 | 0.00 | 0.00 | 0.00 | 44 | 999.7 |
| 20260506141443 | 77 | 202 | 0.0 | 0.0 | 0.00 | 0.00 | 0.00 | 44 | 999.2 |
| 20260506140943 | 76 | 112 | 0.0 | 0.0 | 0.00 | 0.00 | 0.00 | 44 | 999.6 |
| 20260506140443 | 76 | 22 | 0.0 | 0.0 | 0.00 | 0.00 | 0.00 | 44 | 999.8 |
| 20260506135943 | 76 | 22 | 0.0 | 0.0 | 0.00 | 0.00 | 0.00 | 44 | 1000.6 |
| 20260506135443 | 0 | 90 | 0.0 | 0.0 | 0.00 | 0.00 | 0.00 | 1001.5 | |
| 20260506134943 | 0 | 90 | 0.0 | 0.0 | 0.00 | 0.00 | 0.00 | 999.9 | |
| 20260506134443 | 77 | 90 | 0.0 | 0.0 | 0.00 | 0.00 | 0.00 | 44 | 997.5 |
| 20260506133943 | 77 | 90 | 0.0 | 0.0 | 0.00 | 0.00 | 0.00 | 44 | 999.2 |
| 20260506133443 | 77 | 22 | 0.0 | 0.0 | 0.00 | 0.00 | 0.00 | 44 | 1000.0 |
| 20260506132943 | 77 | 22 | 0.0 | 2.6 | 0.00 | 0.00 | 0.00 | 43 | 1000.5 |
| 20260506132443 | 77 | 22 | 0.0 | 0.9 | 0.00 | 0.00 | 0.00 | 44 | 1000.4 |
| 20260506131943 | 77 | 22 | 0.0 | 0.0 | 0.00 | 0.00 | 0.00 | 44 | 999.7 |
| 20260506131443 | 77 | 90 | 0.0 | 0.0 | 0.00 | 0.00 | 0.00 | 45 | 1000.3 |
| 20260506130943 | 77 | 247 | 0.0 | 0.0 | 0.00 | 0.00 | 0.00 | 45 | 1000.5 |
| 20260506130443 | 77 | 90 | 0.0 | 0.0 | 0.00 | 0.00 | 0.00 | 45 | 1001.7 |
| 20260506125943 | 0 | 112 | 0.0 | 0.0 | 0.00 | 0.00 | 0.00 | 1002.1 | |
| 20260506125443 | 0 | 112 | 0.0 | 0.0 | 0.00 | 0.00 | 0.00 | 1002.3 | |
| 20260506124943 | 0 | 112 | 0.0 | 0.0 | 0.00 | 0.00 | 0.00 | 1002.5 | |
| 20260506124443 | 0 | 112 | 0.0 | 0.0 | 0.00 | 0.00 | 0.00 | 1002.4 | |
| 20260506123943 | 0 | 112 | 0.0 | 0.0 | 0.00 | 0.00 | 0.00 | 1001.9 | |
| 20260506123443 | 0 | 112 | 0.0 | 0.0 | 0.00 | 0.00 | 0.00 | 1002.7 | |
| 20260506122943 | 0 | 90 | 0.0 | 0.0 | 0.00 | 0.00 | 0.00 | 1002.4 | |
| 20260506122443 | 0 | 90 | 0.0 | 0.0 | 0.00 | 0.00 | 0.00 | 998.0 | |
| 20260506121943 | 75 | 90 | 0.0 | 0.0 | 0.00 | 0.00 | 0.00 | 48 | 1000.1 |
| 20260506121443 | 75 | 90 | 0.0 | 0.0 | 0.00 | 0.00 | 0.00 | 48 | 1001.1 |
| 20260506120943 | 75 | 112 | 0.0 | 0.9 | 0.00 | 0.00 | 0.00 | 48 | 1001.0 |
| 20260506120443 | 75 | 112 | 0.0 | 0.0 | 0.00 | 0.00 | 0.00 | 49 | 1001.5 |
| 20260506115943 | 75 | 112 | 0.0 | 0.0 | 0.00 | 0.00 | 0.00 | 49 | 1001.3 |
| 20260506115443 | 75 | 0 | 0.0 | 0.0 | 0.00 | 0.00 | 0.00 | 50 | 1001.5 |
| 20260506114943 | 75 | 112 | 0.0 | 0.0 | 0.00 | 0.00 | 0.00 | 10 | 1002.7 |
| 20260506114443 | 0 | 180 | 0.0 | 0.0 | 0.00 | 0.00 | 0.00 | 1002.7 | |
| 20260506113943 | 0 | 180 | 0.0 | 0.0 | 0.00 | 0.00 | 0.00 | 998.7 | |
| 20260506113443 | 75 | 180 | 0.0 | 0.0 | 0.00 | 0.00 | 0.00 | 51 | 1000.3 |
| 20260506112943 | 75 | 180 | 0.0 | 0.0 | 0.00 | 0.00 | 0.00 | 51 | 1001.6 |
| 20260506112443 | 75 | 180 | 0.0 | 0.0 | 0.00 | 0.00 | 0.00 | 51 | 1001.9 |
| 20260506111943 | 75 | 22 | 0.0 | 0.0 | 0.00 | 0.00 | 0.00 | 51 | 1002.0 |
| 20260506111443 | 0 | 0 | 0.0 | 0.0 | 0.00 | 0.00 | 0.00 | 1003.1 | |
| 20260506110943 | 0 | 0 | 0.0 | 0.0 | 0.00 | 0.00 | 0.00 | 1002.8 | |
| 20260506110443 | 75 | 0 | 0.0 | 0.0 | 0.00 | 0.00 | 0.00 | 51 | 999.3 |
| 20260506105943 | 75 | 0 | 0.0 | 0.0 | 0.00 | 0.00 | 0.00 | 51 | 1001.3 |
| 20260506105443 | 75 | 0 | 0.0 | 0.0 | 0.00 | 0.00 | 0.00 | 51 | 1001.3 |
| 20260506104943 | 75 | 0 | 0.0 | 0.0 | 0.00 | 0.00 | 0.00 | 52 | 1001.8 |
| 20260506104443 | 75 | 90 | 0.0 | 0.0 | 0.00 | 0.00 | 0.00 | 52 | 1001.6 |
| 20260506103943 | 75 | 180 | 0.0 | 0.0 | 0.00 | 0.00 | 0.00 | 51 | 1001.9 |
| 20260506103443 | 75 | 22 | 0.0 | 0.0 | 0.00 | 0.00 | 0.00 | 51 | 1001.8 |
| 20260506102943 | 75 | 202 | 0.0 | 0.0 | 0.00 | 0.00 | 0.00 | 51 | 1002.2 |
| 20260506102443 | 75 | 0 | 0.0 | 0.0 | 0.00 | 0.00 | 0.00 | 51 | 1002.3 |
| 20260506101943 | 75 | 22 | 0.0 | 0.0 | 0.00 | 0.00 | 0.00 | 51 | 1001.7 |
| 20260506101443 | 75 | 202 | 0.0 | 0.0 | 0.00 | 0.00 | 0.00 | 51 | 1002.2 |
| 20260506100943 | 75 | 270 | 0.0 | 0.0 | 0.00 | 0.00 | 0.00 | 51 | 1001.7 |
| 20260506100443 | 75 | 0 | 0.0 | 0.0 | 0.00 | 0.00 | 0.00 | 52 | 1002.4 |
| 20260506095943 | 74 | 22 | 0.0 | 0.0 | 0.00 | 0.00 | 0.00 | 52 | 1002.4 |
| 20260506095443 | 74 | 180 | 0.0 | 0.0 | 0.00 | 0.00 | 0.00 | 52 | 1002.0 |
| 20260506094943 | 74 | 180 | 0.0 | 0.0 | 0.00 | 0.00 | 0.00 | 52 | 1001.9 |
| 20260506094443 | 74 | 90 | 0.0 | 0.0 | 0.00 | 0.00 | 0.00 | 52 | 1002.5 |
| 20260506093943 | 74 | 90 | 0.0 | 0.0 | 0.00 | 0.00 | 0.00 | 52 | 1002.3 |
| 20260506093443 | 74 | 112 | 0.0 | 0.0 | 0.00 | 0.00 | 0.00 | 52 | 1002.1 |
| 20260506092943 | 75 | 202 | 0.0 | 0.0 | 0.00 | 0.00 | 0.00 | 50 | 1002.5 |
| 20260506092443 | 75 | 270 | 0.0 | 0.0 | 0.00 | 0.00 | 0.00 | 50 | 1002.2 |
| 20260506091943 | 75 | 180 | 0.0 | 0.0 | 0.00 | 0.00 | 0.00 | 50 | 1002.4 |
| 20260506091443 | 75 | 202 | 0.0 | 0.0 | 0.00 | 0.00 | 0.00 | 50 | 1001.7 |
| 20260506090943 | 74 | 202 | 0.0 | 0.0 | 0.00 | 0.00 | 0.00 | 51 | 1002.0 |
| 20260506090443 | 74 | 202 | 0.0 | 0.0 | 0.00 | 0.00 | 0.00 | 51 | 1001.7 |
| 20260506085943 | 74 | 202 | 0.0 | 1.7 | 0.00 | 0.00 | 0.00 | 52 | 1001.6 |
| 20260506085444 | 74 | 202 | 0.0 | 1.7 | 0.00 | 0.00 | 0.00 | 52 | 1002.1 |
| 20260506084943 | 74 | 202 | 0.0 | 0.0 | 0.00 | 0.00 | 0.00 | 53 | 1002.6 |
| 20260506084443 | 73 | 202 | 0.0 | 0.0 | 0.00 | 0.00 | 0.00 | 52 | 1002.0 |
| 20260506083943 | 73 | 270 | 0.0 | 0.0 | 0.00 | 0.00 | 0.00 | 53 | 1002.1 |
| 20260506083443 | 73 | 112 | 0.0 | 0.0 | 0.00 | 0.00 | 0.00 | 53 | 1002.7 |
| 20260506082943 | 73 | 112 | 0.0 | 0.0 | 0.00 | 0.00 | 0.00 | 53 | 1002.6 |
| 20260506082443 | 73 | 112 | 0.0 | 0.0 | 0.00 | 0.00 | 0.00 | 53 | 1002.6 |
| 20260506081943 | 73 | 112 | 0.0 | 0.0 | 0.00 | 0.00 | 0.00 | 54 | 1002.7 |
| 20260506081443 | 73 | 202 | 0.0 | 0.0 | 0.00 | 0.00 | 0.00 | 54 | 1002.6 |
| 20260506080943 | 73 | 202 | 0.0 | 0.0 | 0.00 | 0.00 | 0.00 | 54 | 1003.4 |
| 20260506080443 | 0 | 202 | 0.0 | 0.0 | 0.00 | 0.00 | 0.00 | 1004.1 | |
| 20260506073443 | 71 | 202 | 0.0 | 0.0 | 0.00 | 0.00 | 0.00 | 58 | 1002.7 |
| 20260506072943 | 71 | 202 | 0.0 | 2.6 | 0.00 | 0.00 | 0.00 | 58 | 1003.1 |
| 20260506072443 | 71 | 202 | 0.0 | 1.7 | 0.00 | 0.00 | 0.00 | 58 | 1003.7 |
| 20260506071943 | 0 | 202 | 0.0 | 0.0 | 0.00 | 0.00 | 0.00 | 1004.2 | |
| 20260506071443 | 0 | 202 | 0.0 | 0.0 | 0.00 | 0.00 | 0.00 | 1003.4 | |
| 20260506070943 | 70 | 202 | 0.0 | 0.0 | 0.00 | 0.00 | 0.00 | 59 | 1001.0 |
| 20260506070443 | 70 | 202 | 0.0 | 0.0 | 0.00 | 0.00 | 0.00 | 59 | 1001.0 |
| 20260506062443 | 66 | 202 | 0.0 | 0.0 | 0.00 | 0.00 | 0.00 | 65 | 1003.1 |
| 20260506061943 | 65 | 202 | 0.0 | 2.6 | 0.00 | 0.00 | 0.00 | 65 | 1003.0 |
| 20260506061443 | 65 | 202 | 0.0 | 0.0 | 0.00 | 0.00 | 0.00 | 66 | 1002.6 |
| 20260506060943 | 64 | 202 | 0.0 | 0.0 | 0.00 | 0.00 | 0.00 | 66 | 1002.9 |
| 20260506060443 | 64 | 270 | 0.0 | 0.0 | 0.00 | 0.00 | 0.00 | 66 | 1002.8 |
| 20260506050944 | 61 | 202 | 0.0 | 0.0 | 0.00 | 0.00 | 0.00 | 67 | 1002.6 |
| 20260506050444 | 61 | 270 | 0.0 | 0.0 | 0.00 | 0.00 | 0.00 | 67 | 1002.4 |
| 20260506044944 | 61 | 202 | 0.0 | 0.0 | 0.00 | 0.00 | 0.00 | 67 | 1003.0 |
| 20260506044444 | 60 | 270 | 0.0 | 0.0 | 0.00 | 0.00 | 0.00 | 67 | 1002.4 |
| 20260506043944 | 60 | 202 | 0.0 | 0.0 | 0.00 | 0.00 | 0.00 | 67 | 1002.3 |
| 20260506043444 | 60 | 202 | 0.0 | 0.0 | 0.00 | 0.00 | 0.00 | 66 | 1002.4 |
| 20260506042944 | 60 | 202 | 0.0 | 0.0 | 0.00 | 0.00 | 0.00 | 66 | 1002.3 |
| 20260506042444 | 60 | 202 | 0.0 | 0.0 | 0.00 | 0.00 | 0.00 | 66 | 1002.1 |
| 20260506041944 | 60 | 202 | 0.0 | 0.0 | 0.00 | 0.00 | 0.00 | 66 | 1002.3 |
| 20260506041444 | 60 | 202 | 0.0 | 0.0 | 0.00 | 0.00 | 0.00 | 66 | 1001.3 |
| 20260506040944 | 60 | 202 | 0.0 | 0.0 | 0.00 | 0.00 | 0.00 | 66 | 1001.6 |
| 20260506040444 | 60 | 202 | 0.0 | 0.0 | 0.00 | 0.00 | 0.00 | 65 | 1002.2 |
| 20260506035944 | 60 | 202 | 0.0 | 0.0 | 0.00 | 0.00 | 0.00 | 65 | 1001.7 |
| 20260506035444 | 60 | 202 | 0.0 | 0.0 | 0.00 | 0.00 | 0.00 | 65 | 1001.2 |
| 20260506034944 | 60 | 202 | 0.0 | 0.0 | 0.00 | 0.00 | 0.00 | 65 | 1001.6 |
| 20260506034444 | 60 | 202 | 0.0 | 0.0 | 0.00 | 0.00 | 0.00 | 65 | 1001.8 |
| 20260506033944 | 60 | 202 | 0.0 | 0.0 | 0.00 | 0.00 | 0.00 | 65 | 1001.7 |
| 20260506033444 | 60 | 202 | 0.0 | 0.0 | 0.00 | 0.00 | 0.00 | 65 | 1002.4 |
| 20260506032944 | 60 | 202 | 0.0 | 0.0 | 0.00 | 0.00 | 0.00 | 65 | 1001.3 |
| 20260506032444 | 60 | 202 | 0.0 | 0.0 | 0.00 | 0.00 | 0.00 | 64 | 1002.1 |
| 20260506031944 | 60 | 202 | 0.0 | 0.0 | 0.00 | 0.00 | 0.00 | 64 | 1001.7 |
| 20260506031444 | 61 | 202 | 0.0 | 0.0 | 0.00 | 0.00 | 0.00 | 64 | 1001.9 |
| 20260506030944 | 61 | 202 | 0.0 | 0.0 | 0.00 | 0.00 | 0.00 | 64 | 1001.4 |
| 20260506030444 | 61 | 202 | 0.0 | 0.0 | 0.00 | 0.00 | 0.00 | 64 | 1001.4 |
| 20260506025944 | 61 | 202 | 0.0 | 0.0 | 0.00 | 0.00 | 0.00 | 64 | 1001.6 |
| 20260506025444 | 61 | 202 | 0.0 | 0.0 | 0.00 | 0.00 | 0.00 | 64 | 1001.8 |
| 20260506024944 | 61 | 202 | 0.0 | 0.0 | 0.00 | 0.00 | 0.00 | 64 | 1001.6 |
| 20260506024444 | 61 | 202 | 0.0 | 0.0 | 0.00 | 0.00 | 0.00 | 64 | 1001.7 |
| 20260506023944 | 61 | 202 | 0.0 | 0.0 | 0.00 | 0.00 | 0.00 | 64 | 1001.9 |
| 20260506023444 | 61 | 202 | 0.0 | 0.0 | 0.00 | 0.00 | 0.00 | 64 | 1001.8 |
| 20260506022944 | 61 | 202 | 0.0 | 0.0 | 0.00 | 0.00 | 0.00 | 64 | 1001.4 |
| 20260506022444 | 61 | 202 | 0.0 | 0.0 | 0.00 | 0.00 | 0.00 | 64 | 1001.3 |
| 20260506021944 | 61 | 202 | 0.0 | 0.0 | 0.00 | 0.00 | 0.00 | 64 | 1001.6 |